Radiation Dose at Monitoring Post of Fukushima Daini Nuclear Power Station
Date,Time,MP-1(microSv/h),MP-2(microSv/h),MP-3(microSv/h),MP-4(microSv/h),MP-5(microSv/h),MP-6(microSv/h),MP-7(microSv/h),Wind Direction,Wind Velocity(m/s),Rain
2020/05/14,00:00,0.181,0.166,0.270,0.252,0.260,0.143,0.086,west-northwest,1.8,No
2020/05/14,00:10,0.182,0.165,0.271,0.254,0.262,0.143,0.085,north-northwest,2.2,No
2020/05/14,00:20,0.180,0.166,0.270,0.254,0.261,0.142,0.086,northwest,1.5,No
2020/05/14,00:30,0.181,0.166,0.270,0.253,0.261,0.143,0.086,north,1.5,No
2020/05/14,00:40,0.181,0.165,0.271,0.254,0.262,0.142,0.086,north,1.2,No
2020/05/14,00:50,0.181,0.166,0.269,0.253,0.261,0.143,0.086,north,2.0,No
2020/05/14,01:00,0.182,0.165,0.270,0.253,0.263,0.143,0.086,northeast,1.7,No
2020/05/14,01:10,0.180,0.166,0.271,0.254,0.262,0.143,0.086,north-northeast,1.9,No
2020/05/14,01:20,0.182,0.166,0.269,0.254,0.262,0.143,0.086,east-northeast,1.7,No
2020/05/14,01:30,0.181,0.165,0.269,0.253,0.261,0.143,0.086,northeast,1.6,No
2020/05/14,01:40,0.181,0.166,0.271,0.255,0.261,0.142,0.086,north-northeast,2.1,No
2020/05/14,01:50,0.181,0.166,0.270,0.253,0.262,0.143,0.086,north,1.1,No
2020/05/14,02:00,0.181,0.165,0.270,0.254,0.262,0.143,0.086,north,1.7,No
2020/05/14,02:10,0.181,0.164,0.271,0.253,0.261,0.143,0.086,north,1.6,No
2020/05/14,02:20,0.181,0.166,0.270,0.253,0.262,0.143,0.086,north,1.7,No
2020/05/14,02:30,0.181,0.165,0.270,0.253,0.263,0.143,0.086,north-northeast,2.2,No
2020/05/14,02:40,0.182,0.165,0.272,0.253,0.262,0.142,0.086,northeast,0.7,No
2020/05/14,02:50,0.182,0.165,0.271,0.253,0.263,0.143,0.086,southeast,2.3,No
2020/05/14,03:00,0.182,0.165,0.271,0.252,0.262,0.143,0.086,southeast,2.4,No
2020/05/14,03:10,0.180,0.165,0.270,0.254,0.262,0.143,0.085,southeast,2.6,No
2020/05/14,03:20,0.181,0.166,0.270,0.255,0.261,0.143,0.086,east-southeast,1.7,No
2020/05/14,03:30,0.182,0.166,0.270,0.253,0.261,0.143,0.086,-,CALM,No
2020/05/14,03:40,0.182,0.164,0.269,0.254,0.262,0.143,0.086,southwest,2.8,No
2020/05/14,03:50,0.181,0.166,0.270,0.253,0.261,0.143,0.087,west-southwest,3.7,No
2020/05/14,04:00,0.180,0.165,0.269,0.253,0.260,0.143,0.086,west,2.8,No
2020/05/14,04:10,0.181,0.165,0.269,0.253,0.262,0.143,0.085,west-southwest,2.2,No
2020/05/14,04:20,0.181,0.164,0.269,0.253,0.262,0.142,0.086,west-southwest,1.2,No
2020/05/14,04:30,0.182,0.166,0.269,0.253,0.260,0.143,0.086,-,CALM,No
2020/05/14,04:40,0.183,0.165,0.269,0.253,0.263,0.142,0.086,west,1.3,No
2020/05/14,04:50,0.180,0.166,0.269,0.254,0.261,0.143,0.086,west,3.6,No
2020/05/14,05:00,0.182,0.165,0.269,0.252,0.261,0.142,0.087,west,3.4,No
2020/05/14,05:10,0.182,0.165,0.269,0.254,0.262,0.143,0.086,southeast,1.1,No
2020/05/14,05:20,0.181,0.165,0.269,0.253,0.263,0.143,0.086,southeast,4.5,No
2020/05/14,05:30,0.181,0.166,0.269,0.254,0.262,0.143,0.086,south-southeast,3.8,No
2020/05/14,05:40,0.182,0.165,0.269,0.252,0.261,0.142,0.086,south-southwest,2.0,No
2020/05/14,05:50,0.181,0.167,0.270,0.253,0.262,0.143,0.086,southeast,0.6,No
2020/05/14,06:00,0.183,0.165,0.268,0.254,0.262,0.143,0.086,southeast,1.4,No
2020/05/14,06:10,0.182,0.165,0.268,0.253,0.260,0.143,0.086,south,1.6,No
2020/05/14,06:20,0.182,0.165,0.270,0.253,0.261,0.143,0.085,south-southeast,0.8,No
2020/05/14,06:30,0.182,0.165,0.269,0.252,0.262,0.142,0.086,south-southeast,2.9,No
2020/05/14,06:40,0.181,0.165,0.270,0.253,0.262,0.142,0.086,southeast,3.1,No
2020/05/14,06:50,0.182,0.165,0.269,0.252,0.261,0.142,0.085,south-southwest,1.9,No
2020/05/14,07:00,0.180,0.165,0.270,0.253,0.261,0.141,0.086,west-southwest,1.6,No
2020/05/14,07:10,0.181,0.165,0.268,0.250,0.260,0.143,0.085,west-southwest,2.8,No
2020/05/14,07:20,0.180,0.164,0.268,0.252,0.261,0.141,0.085,west-northwest,2.3,No
2020/05/14,07:30,0.181,0.164,0.267,0.250,0.261,0.142,0.085,west-northwest,1.3,No
2020/05/14,07:40,0.181,0.165,0.266,0.253,0.260,0.141,0.086,east,3.7,No
2020/05/14,07:50,0.181,0.164,0.269,0.251,0.263,0.143,0.085,east,3.4,No
2020/05/14,08:00,0.180,0.163,0.269,0.250,0.261,0.142,0.086,northeast,2.1,No
2020/05/14,08:10,0.179,0.165,0.266,0.250,0.263,0.142,0.086,northeast,2.7,No
2020/05/14,08:20,0.181,0.164,0.266,0.252,0.260,0.143,0.085,east-northeast,2.5,No
2020/05/14,08:30,0.181,0.164,0.269,0.250,0.259,0.142,0.085,east-northeast,4.9,No
2020/05/14,08:40,0.181,0.167,0.268,0.249,0.262,0.141,0.086,east,4.4,No
2020/05/14,08:50,0.181,0.165,0.265,0.250,0.260,0.143,0.085,east,4.9,No
2020/05/14,09:00,0.180,0.164,0.268,0.254,0.260,0.142,0.086,east,5.4,No
2020/05/14,09:10,0.181,0.166,0.271,0.252,0.262,0.141,0.086,east,4.9,No
2020/05/14,09:20,0.181,0.165,0.270,0.249,0.261,0.142,0.085,east,5.8,No
2020/05/14,09:30,0.179,0.164,0.267,0.249,0.258,0.144,0.085,east,5.3,No
2020/05/14,09:40,0.180,0.166,0.267,0.253,0.261,0.142,0.086,east,4.3,No
2020/05/14,09:50,0.181,0.165,0.266,0.250,0.262,0.142,0.085,east,3.9,No
2020/05/14,10:00,0.181,0.165,0.270,0.251,0.259,0.143,0.086,east-southeast,4.9,No
2020/05/14,10:10,0.180,0.164,0.270,-,0.259,0.143,0.085,east-southeast,4.0,No
2020/05/14,10:20,0.178,0.165,0.269,-,0.263,0.141,0.086,east-southeast,3.9,No
2020/05/14,10:30,0.180,0.166,0.268,-,0.261,0.142,0.085,southeast,2.3,No
2020/05/14,10:40,0.182,0.164,0.267,-,0.259,0.143,0.086,east-southeast,2.4,No
2020/05/14,10:50,0.180,0.165,0.267,-,0.258,0.143,0.086,southeast,2.5,No
2020/05/14,11:00,0.180,0.164,0.267,-,0.261,0.142,0.086,east-southeast,2.6,No
2020/05/14,11:10,0.179,0.165,0.271,-,0.263,0.143,0.086,southeast,2.7,No
2020/05/14,11:20,0.179,0.165,0.272,-,0.260,0.143,0.086,southeast,3.5,No
2020/05/14,11:30,0.178,0.165,0.270,-,0.259,0.143,0.085,southeast,2.7,No
2020/05/14,11:40,0.181,0.164,0.268,-,0.258,0.142,0.087,east-southeast,2.0,No
2020/05/14,11:50,0.182,0.165,0.268,-,0.260,0.142,0.086,southeast,2.9,No
2020/05/14,12:00,0.181,0.167,0.268,-,0.263,0.143,0.086,east-southeast,4.5,No
2020/05/14,12:10,0.180,0.165,0.269,-,0.261,0.142,0.085,east-southeast,2.1,No
2020/05/14,12:20,0.179,0.165,0.270,-,0.260,0.144,0.086,east-southeast,3.3,No
2020/05/14,12:30,0.179,0.164,0.272,-,0.259,0.143,0.086,east-southeast,1.0,No
2020/05/14,12:40,0.181,0.166,0.272,-,0.263,0.142,0.086,southeast,1.9,No
2020/05/14,12:50,0.183,0.166,0.269,-,0.264,0.142,0.086,east-southeast,5.5,No
2020/05/14,13:00,0.180,0.165,0.269,-,0.261,0.143,0.086,east-southeast,5.6,No
2020/05/14,13:10,0.180,0.164,0.267,-,0.261,0.142,0.086,east-southeast,6.0,No
2020/05/14,13:20,0.179,0.165,0.269,-,0.259,0.142,0.086,east-southeast,4.7,No
2020/05/14,13:30,0.179,0.166,0.273,-,0.262,0.142,0.086,east-southeast,7.6,No
2020/05/14,13:40,0.181,0.166,0.272,-,0.262,0.142,0.086,east-southeast,6.3,No
2020/05/14,13:50,0.182,0.165,0.270,-,0.262,0.144,0.086,east-southeast,6.3,No
2020/05/14,14:00,0.182,0.164,0.269,-,0.260,0.143,0.086,east-southeast,6.5,No
2020/05/14,14:10,0.181,0.164,0.269,-,0.258,0.142,0.086,east-southeast,6.3,No
2020/05/14,14:20,0.180,0.166,0.268,-,0.258,0.143,0.086,east-southeast,7.9,No
2020/05/14,14:30,0.178,0.166,0.269,-,0.260,0.142,0.086,east-southeast,6.1,No
2020/05/14,14:40,0.180,0.165,0.274,-,0.264,0.143,0.085,east-southeast,6.7,No
2020/05/14,14:50,0.182,0.165,0.271,-,0.263,0.143,0.087,southeast,5.4,No
2020/05/14,15:00,0.182,0.166,0.270,0.253,0.260,0.143,0.086,southeast,5.3,No
2020/05/14,15:10,0.181,0.166,0.270,0.253,0.259,0.143,0.086,southeast,5.6,No
2020/05/14,15:20,0.180,0.165,0.269,0.253,0.259,0.143,0.085,south-southeast,5.6,No
2020/05/14,15:30,0.180,0.165,0.272,0.252,0.258,0.143,0.086,southeast,7.1,No
2020/05/14,15:40,0.181,0.167,0.272,0.255,0.259,0.143,0.085,southeast,7.3,No
2020/05/14,15:50,0.182,0.166,0.270,0.253,0.264,0.142,0.087,south-southeast,7.8,No
2020/05/14,16:00,0.182,0.166,0.272,0.255,0.263,0.143,0.086,south-southeast,7.7,No
2020/05/14,16:10,0.182,0.167,0.272,0.257,0.261,0.143,0.086,south-southeast,7.1,No
2020/05/14,16:20,0.180,0.167,0.272,0.253,0.260,0.143,0.087,south-southeast,5.7,No
2020/05/14,16:30,0.183,0.167,0.274,0.256,0.259,0.141,0.086,south-southeast,6.6,No
2020/05/14,16:40,0.182,0.167,0.270,0.255,0.262,0.142,0.087,south-southeast,7.9,No
2020/05/14,16:50,0.181,0.166,0.273,0.255,0.264,0.144,0.087,south-southeast,7.9,No
2020/05/14,17:00,0.182,0.166,0.272,0.254,0.262,0.144,0.087,south-southeast,5.8,No
2020/05/14,17:10,0.182,0.167,0.273,0.254,0.260,0.144,0.086,south-southeast,7.8,No
2020/05/14,17:20,0.181,0.166,0.271,0.254,0.265,0.143,0.086,south,7.0,No
2020/05/14,17:30,0.182,0.167,0.272,0.254,0.264,0.144,0.086,south-southeast,8.9,No
2020/05/14,17:40,0.181,0.166,0.272,0.255,0.262,0.142,0.086,south,8.2,No
2020/05/14,17:50,0.183,0.167,0.274,0.253,0.264,0.144,0.087,south,8.1,No
2020/05/14,18:00,0.181,0.167,0.271,0.255,0.262,0.142,0.086,south,7.0,No
2020/05/14,18:10,0.181,0.166,0.272,0.254,0.264,0.142,0.086,south,7.4,No
2020/05/14,18:20,0.182,0.166,0.272,0.255,0.263,0.143,0.086,south,6.4,No
2020/05/14,18:30,0.181,0.166,0.271,0.254,0.263,0.143,0.085,south,6.4,No
2020/05/14,18:40,0.182,0.165,0.273,0.255,0.264,0.142,0.086,south,5.9,No
2020/05/14,18:50,0.180,0.167,0.271,0.254,0.264,0.142,0.086,south,5.9,No
2020/05/14,19:00,0.184,0.166,0.273,0.255,0.262,0.143,0.086,south,4.1,No
2020/05/14,19:10,0.182,0.167,0.271,0.255,0.262,0.143,0.087,south-southwest,4.8,No
2020/05/14,19:20,0.183,0.166,0.274,0.255,0.262,0.143,0.086,south-southwest,3.2,No
2020/05/14,19:30,0.181,0.167,0.271,0.255,0.262,0.144,0.086,south-southwest,1.8,No
2020/05/14,19:40,0.182,0.167,0.272,0.255,0.263,0.143,0.086,south-southeast,2.4,No
2020/05/14,19:50,0.182,0.166,0.272,0.256,0.263,0.143,0.086,south-southeast,1.7,No
2020/05/14,20:00,0.182,0.168,0.272,0.254,0.263,0.143,0.087,west-northwest,0.7,No
2020/05/14,20:10,0.182,0.166,0.272,0.255,0.263,0.143,0.087,west-northwest,3.2,No
2020/05/14,20:20,0.183,0.168,0.272,0.255,0.261,0.143,0.086,west-northwest,2.6,No
2020/05/14,20:30,0.183,0.167,0.272,0.255,0.265,0.143,0.087,west-northwest,1.6,No
2020/05/14,20:40,0.182,0.166,0.272,0.256,0.261,0.143,0.086,south-southeast,0.7,No
2020/05/14,20:50,0.182,0.166,0.272,0.254,0.264,0.144,0.087,west,1.5,No
2020/05/14,21:00,0.182,0.166,0.273,0.256,0.260,0.143,0.086,west-southwest,1.4,No
2020/05/14,21:10,0.182,0.166,0.271,0.255,0.264,0.143,0.086,southwest,0.9,No
2020/05/14,21:20,0.181,0.166,0.274,0.253,0.262,0.143,0.086,east-southeast,2.4,No
2020/05/14,21:30,0.182,0.167,0.273,0.256,0.264,0.143,0.086,southeast,2.1,No
2020/05/14,21:40,0.182,0.167,0.272,0.255,0.263,0.143,0.087,southeast,2.3,No
2020/05/14,21:50,0.183,0.168,0.273,0.255,0.262,0.143,0.087,south-southeast,2.7,No
2020/05/14,22:00,0.182,0.167,0.271,0.255,0.264,0.143,0.086,south,3.7,No
2020/05/14,22:10,0.183,0.167,0.272,0.255,0.262,0.143,0.086,south-southeast,2.6,No
2020/05/14,22:20,0.182,0.166,0.273,0.256,0.264,0.142,0.087,south,2.5,No
2020/05/14,22:30,0.182,0.166,0.271,0.255,0.261,0.144,0.087,south,2.7,No
2020/05/14,22:40,0.183,0.167,0.272,0.254,0.263,0.144,0.087,south,2.8,No
2020/05/14,22:50,0.182,0.167,0.272,0.256,0.264,0.144,0.086,south-southwest,2.0,No
2020/05/14,23:00,0.182,0.167,0.273,0.255,0.262,0.143,0.087,south-southwest,1.6,No
2020/05/14,23:10,0.183,0.167,0.274,0.255,0.264,0.144,0.087,southwest,2.0,No
2020/05/14,23:20,0.183,0.167,0.272,0.255,0.261,0.144,0.087,west-southwest,1.8,No
2020/05/14,23:30,0.183,0.167,0.272,0.255,0.264,0.145,0.088,west-southwest,2.6,No
2020/05/14,23:40,0.183,0.166,0.273,0.254,0.263,0.144,0.087,west-southwest,2.6,No
2020/05/14,23:50,0.183,0.167,0.272,0.257,0.262,0.144,0.087,west,2.5,No
